Location: Le Domaine
(47.0333°N, 76.5361°W)
Time: 13:31:34
(UTC-05:00)

S-56A Canister/Altair - Pass Details

Date: 23 November 2019
Orbit: 633 x 2499 km, 38.9° (Epoch: 11 December)

Event Time Altitude Azimuth Distance (km) Brightness Sun altitude
Rises 16:04:14 0° 237° (WSW) 5,750 16.0 2.0°
Reaches altitude 10° 16:08:35 10° 232° (SW) 4,507 13.9 1.4°
Maximum altitude 16:19:20 43° 167° (SSE) 2,056 9.9 -0.1°
Drops below altitude 10° 16:26:42 10° 99° (E) 3,111 10.2 -1.2°
Sets 16:29:10 0° 92° (E) 3,858 10.6 -1.6°
